• In Germany
  • List of Countries
  • For 7 days
  • Water Temperature
  • Satellite Maps
  • Weather Map
  • Weather Widgets
  • user-avatar
    Login

    Hourly Weather Gagra

    Today, 15 December, Friday

    Time Temperature Precipitation Wind Pressure Humidity
    00:00 +10°C° 0 mm 2 mps 734 mmHg 49%
    01:00 +10°C° 0 mm 2 mps 734 mmHg 50%
    02:00 +9°C° 0 mm 2 mps 734 mmHg 50%
    03:00 +9°C° 0 mm 2 mps 734 mmHg 51%
    04:00 +9°C° 0 mm 2 mps 734 mmHg 52%
    05:00 +9°C° 0 mm 2 mps 734 mmHg 53%
    06:00 +8°C° 0 mm 3 mps 734 mmHg 54%
    07:00 +9°C° 0 mm 3 mps 735 mmHg 54%
    08:00 +9°C° 0 mm 3 mps 735 mmHg 55%
    09:00 +9°C° 0 mm 3 mps 735 mmHg 55%
    10:00 +11°C° 0 mm 3 mps 735 mmHg 54%
    11:00 +12°C° 0 mm 3 mps 735 mmHg 52%
    12:00 +14°C° 0 mm 3 mps 735 mmHg 51%
    13:00 +14°C° 0 mm 2 mps 735 mmHg 54%
    14:00 +14°C° 0 mm 2 mps 736 mmHg 57%
    15:00 +14°C° 0 mm 2 mps 736 mmHg 59%
    16:00 +12°C° 0 mm 2 mps 736 mmHg 59%
    17:00 +10°C° 0 mm 2 mps 737 mmHg 59%
    18:00 +9°C° 0 mm 2 mps 737 mmHg 59%
    19:00 +8°C° 0 mm 2 mps 737 mmHg 58%
    20:00 +8°C° 0 mm 2 mps 737 mmHg 58%
    21:00 +8°C° 0 mm 2 mps 738 mmHg 58%
    22:00 +8°C° 0 mm 3 mps 738 mmHg 59%
    23:00 +8°C° 0 mm 3 mps 738 mmHg 60%

    Tomorrow, 16 December, Saturday

    Time Temperature Precipitation Wind Pressure Humidity
    00:00 +8°C° 0 mm 3 mps 738 mmHg 62%
    01:00 +8°C° 0 mm 3 mps 738 mmHg 62%
    02:00 +8°C° 0 mm 3 mps 738 mmHg 63%
    03:00 +8°C° 0 mm 3 mps 738 mmHg 63%
    04:00 +8°C° 0 mm 3 mps 738 mmHg 63%
    05:00 +8°C° 0 mm 3 mps 738 mmHg 62%
    06:00 +7°C° 0 mm 4 mps 738 mmHg 61%
    07:00 +7°C° 0 mm 4 mps 737 mmHg 60%
    08:00 +8°C° 0 mm 4 mps 737 mmHg 58%
    09:00 +10°C° 0 mm 4 mps 737 mmHg 56%
    10:00 +11°C° 0 mm 4 mps 736 mmHg 56%
    11:00 +13°C° 0 mm 4 mps 736 mmHg 56%
    12:00 +16°C° 0 mm 3 mps 735 mmHg 56%
    13:00 +16°C° 0 mm 3 mps 735 mmHg 57%
    14:00 +14°C° 0 mm 3 mps 735 mmHg 57%
    15:00 +14°C° 0 mm 3 mps 735 mmHg 58%
    16:00 +13°C° 0 mm 3 mps 735 mmHg 55%
    17:00 +12°C° 0 mm 3 mps 735 mmHg 51%
    18:00 +11°C° 0 mm 4 mps 735 mmHg 47%
    19:00 +11°C° 0 mm 4 mps 735 mmHg 45%
    20:00 +10°C° 0 mm 4 mps 735 mmHg 42%
    21:00 +10°C° 0 mm 4 mps 735 mmHg 39%
    22:00 +10°C° 0 mm 4 mps 735 mmHg 39%
    23:00 +10°C° 0 mm 4 mps 735 mmHg 39%

    Day after tomorrow, 17 December, Sunday

    Time Temperature Precipitation Wind Pressure Humidity
    00:00 +10°C° 0 mm 4 mps 735 mmHg 40%
    01:00 +10°C° 0 mm 4 mps 734 mmHg 40%
    02:00 +10°C° 0 mm 4 mps 734 mmHg 41%
    03:00 +10°C° 0 mm 4 mps 734 mmHg 42%
    04:00 +10°C° 0 mm 4 mps 734 mmHg 43%
    05:00 +10°C° 0 mm 4 mps 734 mmHg 45%
    06:00 +10°C° 0 mm 4 mps 734 mmHg 46%
    07:00 +10°C° 0 mm 4 mps 734 mmHg 46%
    08:00 +11°C° 0 mm 4 mps 734 mmHg 46%
    09:00 +11°C° 0 mm 4 mps 734 mmHg 46%
    10:00 +13°C° 0 mm 4 mps 734 mmHg 48%
    11:00 +14°C° 0 mm 4 mps 733 mmHg 49%
    12:00 +15°C° 0 mm 4 mps 733 mmHg 51%
    13:00 +16°C° 0 mm 3 mps 733 mmHg 51%
    14:00 +14°C° 0 mm 3 mps 733 mmHg 52%
    15:00 +14°C° 0 mm 3 mps 733 mmHg 53%
    16:00 +13°C° 0 mm 3 mps 733 mmHg 53%
    17:00 +12°C° 0 mm 3 mps 734 mmHg 53%
    18:00 +13°C° 0 mm 2 mps 734 mmHg 53%
    19:00 +11°C° 0 mm 3 mps 734 mmHg 54%
    20:00 +11°C° 0 mm 3 mps 734 mmHg 54%
    21:00 +11°C° 0 mm 3 mps 734 mmHg 55%
    22:00 +11°C° 0.1 mm 4 mps 734 mmHg 55%
    23:00 +11°C° 0.1 mm 4 mps 734 mmHg 55%

    18 December, Monday

    Time Temperature Precipitation Wind Pressure Humidity
    00:00 +11°C° 0.1 mm 4 mps 734 mmHg 55%
    01:00 +10°C° 0.1 mm 5 mps 734 mmHg 57%
    02:00 +10°C° 0.1 mm 5 mps 734 mmHg 60%
    03:00 +10°C° 0.1 mm 5 mps 733 mmHg 62%
    04:00 +10°C° 0.3 mm 5 mps 733 mmHg 64%
    05:00 +10°C° 0.3 mm 5 mps 733 mmHg 66%
    06:00 +10°C° 0.3 mm 5 mps 733 mmHg 68%
    07:00 +10°C° 0.3 mm 5 mps 734 mmHg 71%
    08:00 +10°C° 0.3 mm 5 mps 734 mmHg 73%
    09:00 +10°C° 0.3 mm 6 mps 734 mmHg 76%
    10:00 +10°C° 0.4 mm 5 mps 735 mmHg 77%
    11:00 +10°C° 0.4 mm 5 mps 735 mmHg 78%
    12:00 +12°C° 0.4 mm 4 mps 735 mmHg 79%
    13:00 +12°C° 0.2 mm 4 mps 735 mmHg 80%
    14:00 +11°C° 0.2 mm 4 mps 735 mmHg 81%
    15:00 +11°C° 0.2 mm 4 mps 735 mmHg 83%
    16:00 +11°C° 0.7 mm 4 mps 735 mmHg 84%
    17:00 +10°C° 0.7 mm 3 mps 735 mmHg 85%
    18:00 +10°C° 0.7 mm 3 mps 735 mmHg 86%
    19:00 +10°C° 1.7 mm 3 mps 735 mmHg 87%
    20:00 +10°C° 1.7 mm 2 mps 735 mmHg 89%
    21:00 +10°C° 1.7 mm 2 mps 735 mmHg 90%
    22:00 +10°C° 1.7 mm 2 mps 734 mmHg 91%
    23:00 +10°C° 1.7 mm 2 mps 734 mmHg 91%

    19 December, Tuesday

    Time Temperature Precipitation Wind Pressure Humidity
    00:00 +10°C° 1.7 mm 2 mps 734 mmHg 92%
    01:00 +9°C° 2.4 mm 2 mps 734 mmHg 93%
    02:00 +9°C° 2.4 mm 2 mps 734 mmHg 93%
    03:00 +9°C° 2.4 mm 2 mps 734 mmHg 94%
    04:00 +9°C° 2.2 mm 2 mps 734 mmHg 94%
    05:00 +9°C° 2.2 mm 2 mps 734 mmHg 94%
    06:00 +9°C° 2.2 mm 2 mps 734 mmHg 95%
    07:00 +9°C° 1.8 mm 2 mps 735 mmHg 95%
    08:00 +8°C° 1.8 mm 3 mps 736 mmHg 95%
    09:00 +8°C° 1.8 mm 3 mps 737 mmHg 95%
    10:00 +8°C° 1 mm 3 mps 737 mmHg 95%
    11:00 +8°C° 1 mm 3 mps 738 mmHg 95%
    12:00 +8°C° 1 mm 3 mps 739 mmHg 95%
    13:00 +7°C° 0.6 mm 4 mps 739 mmHg 94%
    14:00 +7°C° 0.6 mm 4 mps 740 mmHg 93%
    15:00 +6°C° 0.6 mm 4 mps 740 mmHg 92%
    16:00 +6°C° 0.2 mm 4 mps 741 mmHg 92%
    17:00 +5°C° 0.2 mm 4 mps 741 mmHg 92%
    18:00 +5°C° 0.2 mm 4 mps 742 mmHg 92%
    19:00 +4°C° 0.1 mm 4 mps 743 mmHg 91%
    20:00 +4°C° 0.1 mm 3 mps 743 mmHg 89%
    21:00 +3°C° 0.1 mm 3 mps 743 mmHg 88%
    22:00 +3°C° 0 mm 3 mps 744 mmHg 87%
    23:00 +2°C° 0 mm 3 mps 744 mmHg 86%

    20 December, Wednesday

    Time Temperature Precipitation Wind Pressure Humidity
    00:00 +1°C° 0 mm 3 mps 744 mmHg 85%
    01:00 +1°C° 0 mm 3 mps 744 mmHg 84%
    02:00 +1°C° 0 mm 3 mps 744 mmHg 83%
    03:00 +1°C° 0 mm 3 mps 744 mmHg 82%
    04:00 +1°C° 0.1 mm 3 mps 744 mmHg 82%
    05:00 +1°C° 0.1 mm 3 mps 744 mmHg 83%
    06:00 +1°C° 0.1 mm 3 mps 744 mmHg 83%
    07:00 +2°C° 0.1 mm 3 mps 744 mmHg 83%
    08:00 +3°C° 0.1 mm 2 mps 744 mmHg 83%
    09:00 +3°C° 0.1 mm 2 mps 744 mmHg 83%
    10:00 +4°C° 0.2 mm 2 mps 743 mmHg 81%
    11:00 +5°C° 0.2 mm 2 mps 743 mmHg 80%
    12:00 +5°C° 0.2 mm 2 mps 743 mmHg 78%
    13:00 +5°C° 0.2 mm 2 mps 742 mmHg 78%
    14:00 +5°C° 0.2 mm 2 mps 742 mmHg 79%
    15:00 +5°C° 0.2 mm 2 mps 742 mmHg 79%
    16:00 +5°C° 0.2 mm 2 mps 742 mmHg 80%
    17:00 +4°C° 0.2 mm 2 mps 742 mmHg 81%
    18:00 +4°C° 0.2 mm 2 mps 742 mmHg 82%
    19:00 +4°C° 0.3 mm 2 mps 742 mmHg 82%
    20:00 +3°C° 0.3 mm 2 mps 742 mmHg 83%
    21:00 +3°C° 0.3 mm 2 mps 742 mmHg 83%
    22:00 +3°C° 0.2 mm 2 mps 742 mmHg 83%
    23:00 +3°C° 0.2 mm 2 mps 742 mmHg 82%
    Show more